Location: Bovenkerk
(52.2915°N, 4.8336°E)
Time: 11:08:24
(UTC+00:00)

SPOT 5 - Pass Details

Date: 09 April 2020
Orbit: 624 x 814 km, 98.3° (Epoch: 25 May)

Event Time Altitude Azimuth Distance (km) Brightness Sun altitude
Exits shadow 20:31:38 32° 104° (ESE) 1,090 3.3 -17.4°
Maximum altitude 20:32:52 39° 66° (ENE) 943 3.3 -17.5°
Drops below altitude 10° 20:36:55 10° 358° (N) 2,016 5.8 -18.0°
Sets 20:39:14 0° 351° (N) 2,938 6.9 -18.2°
